Theta_e
311 316 318 322 325 327 327 322 322 321 317 313 312 309 310 308 308 309 309 309 308 308 309 307 307 307 305 306 306 305 304 303 304 302 300 301 306 304 303 302 302 301 301
313 314 316 319 323 324 325 325 320 319 317 315 314 314 311 310 309 308 308 308 307 307 306 307 306 306 304 304 304 304 301 302 303 298 297 294 296 302 301 301 300 300 300
311 311 312 314 316 318 319 322 320 317 317 315 313 311 311 309 307 307 307 306 306 306 306 306 307 306 305 302 303 303 301 298 301 301 297 291 290 294 298 298 299 299 299
310 309 308 308 310 311 312 313 313 313 313 313 313 312 312 310 309 308 306 306 305 305 306 306 306 306 305 303 302 303 302 301 297 298 299 299 297 288 287 295 295 297 297
309 308 308 309 310 311 311 312 312 312 312 313 313 312 309 308 307 306 305 306 306 304 305 305 305 305 304 304 303 302 302 302 298 297 296 296 295 295 290 287 290 294 295
308 308 309 309 309 310 311 312 311 310 311 312 311 311 309 307 306 306 306 305 304 303 304 304 304 304 304 303 302 302 301 300 299 298 296 294 291 290 289 287 288 289 292
308 308 308 308 309 309 309 310 311 309 309 310 310 310 309 308 307 306 305 303 303 303 303 303 303 302 303 302 302 301 300 299 298 297 296 296 294 294 292 290 288 287 290
308 308 309 309 310 310 310 309 309 307 307 308 307 308 307 308 306 304 303 303 302 302 303 302 302 301 301 301 300 300 299 299 298 296 296 295 295 295 293 291 288 285 286
307 308 309 309 308 307 307 308 308 307 306 305 306 306 305 304 303 303 303 302 302 300 301 301 300 300 300 300 300 299 297 297 296 296 295 294 295 295 292 291 289 286 282
304 305 305 305 305 305 305 306 306 304 304 303 302 301 301 300 301 301 301 301 301 300 300 300 300 299 299 299 298 297 296 295 295 294 293 292 291 290 290 289 289 288 285
302 302 302 302 302 302 303 303 302 300 300 300 300 300 300 299 300 299 299 299 299 298 298 298 298 298 296 295 295 294 293 292 292 290 289 289 289 288 289 288 287 286 285
300 300 300 300 301 301 302 300 300 299 299 299 299 298 298 298 297 297 297 298 297 298 297 297 296 295 294 293 292 291 291 289 288 288 288 288 287 287 287 286 285 284 285
299 299 299 299 300 298 298 297 298 297 297 297 297 297 297 296 296 296 297 296 296 295 296 296 295 293 294 292 292 291 289 288 287 287 287 287 286 285 286 285 284 284 283
298 299 299 299 299 298 296 295 295 296 296 296 296 296 296 296 296 296 296 295 295 294 294 296 295 294 292 292 290 288 288 288 288 287 287 286 285 284 284 283 283 283 282
297 298 297 297 297 295 294 295 295 295 295 294 295 295 296 296 295 294 295 294 294 293 294 294 293 291 290 289 288 288 288 287 286 286 285 284 283 283 282 282 282 281 280
297 297 296 295 293 293 293 293 293 293 293 293 294 295 295 294 293 293 293 293 292 291 291 289 289 288 288 287 286 286 286 284 282 281 282 281 281 281 280 280 280 281 279
296 296 294 293 293 293 292 292 292 292 291 291 293 293 293 292 292 292 291 291 291 291 289 289 288 287 287 285 285 283 283 282 281 280 280 280 280 280 281 280 281 282 282
296 295 293 292 292 292 291 291 291 291 290 291 291 291 291 291 290 290 289 290 290 288 289 287 286 286 285 283 283 281 282 281 281 280 280 280 280 280 280 281 281 281 281
296 294 293 292 291 290 290 290 290 289 289 290 290 290 290 289 289 288 289 288 288 288 287 287 285 284 283 282 281 281 281 280 280 280 280 280 279 279 281 280 279 279 280
292 290 290 290 290 289 290 289 289 288 289 289 290 290 290 288 288 288 288 288 288 287 287 285 285 282 282 280 280 281 282 280 280 280 280 279 279 279 279 279 278 277 278
289 289 289 289 289 289 289 288 288 288 289 290 290 289 289 288 288 288 288 289 287 286 285 283 284 283 282 281 280 280 281 280 279 278 278 279 278 278 278 278 278 278 279
288 289 289 288 289 289 289 288 288 289 289 289 289 289 289 288 286 287 287 287 285 284 283 282 282 283 282 280 280 280 280 280 279 278 278 278 277 277 276 277 277 277 277
287 288 288 287 288 288 289 287 289 288 288 288 288 288 288 287 286 285 285 285 285 283 283 282 282 282 283 283 279 279 280 279 278 278 277 276 275 275 276 275 275 276 276
288 287 287 286 286 287 287 288 287 287 287 287 287 288 286 286 286 285 285 284 284 283 282 281 281 282 282 282 282 281 281 278 278 276 276 274 274 273 274 275 275 275 274
287 287 286 286 286 287 287 287 287 287 286 286 287 287 286 285 285 285 284 284 285 284 282 282 282 282 281 282 280 280 280 280 277 275 275 275 274 273 274 274 274 274 272
286 286 286 286 286 286 285 286 287 286 286 285 286 286 286 286 285 284 284 284 283 282 283 283 283 284 281 280 280 281 279 277 274 275 274 273 272 272 272 273 272 273 271
Wind_Speed
4 6 8 11 15 14 15 11 12 10 10 8 5 3 3 3 3 5 7 6 6 7 7 5 5 4 5 4 4 4 6 4 5 5 6 6 5 4 4 5 5 7 7
9 9 9 9 11 13 12 11 11 13 11 9 5 3 4 2 4 4 5 6 6 6 4 4 3 3 3 5 5 5 5 5 4 6 6 5 5 2 7 5 5 6 8
13 10 9 9 8 9 10 12 13 12 8 4 4 4 5 4 3 3 3 3 4 4 3 3 1 1 3 4 5 4 5 5 4 5 4 5 4 9 5 10 5 12 7
8 9 11 10 11 9 7 9 8 9 7 7 4 4 2 2 2 3 2 2 2 2 1 1 2 3 3 4 4 3 4 4 5 5 3 6 6 6 8 5 8 11 11
8 10 9 9 8 8 9 8 8 7 6 4 4 2 4 4 3 3 3 2 2 3 3 4 5 5 4 4 4 4 4 3 4 4 4 5 6 8 7 10 9 9 8
8 7 5 4 4 4 5 4 7 6 4 5 5 5 6 5 3 2 2 2 3 3 5 6 6 5 5 5 5 5 5 5 5 4 5 5 5 6 6 7 11 12 10
11 10 10 10 7 5 7 5 5 6 5 6 6 5 6 4 3 3 3 4 4 4 5 6 6 6 6 5 5 5 6 7 6 6 5 5 6 6 6 8 9 9 10
10 9 7 6 6 5 4 4 5 5 5 6 5 4 3 2 3 4 4 4 5 6 7 7 7 7 6 5 4 4 5 5 7 8 7 5 5 5 7 7 8 10 12
10 10 7 6 5 5 4 5 5 5 4 4 3 1 4 5 5 7 6 5 6 6 7 9 9 8 7 6 4 5 7 7 10 7 6 5 5 4 4 5 5 7 13
7 6 6 6 6 5 3 4 4 4 3 4 4 4 4 4 4 4 5 7 8 9 10 10 10 8 7 5 6 6 6 9 7 5 6 5 4 5 5 6 6 8 11
8 7 7 6 5 4 4 5 4 6 4 3 2 2 2 3 4 4 5 6 8 9 10 11 10 9 5 6 5 6 7 8 7 4 5 6 6 6 8 8 9 9 10
10 8 7 6 5 5 6 6 4 4 4 3 3 3 4 4 4 5 6 7 8 9 10 9 6 5 5 4 4 6 6 6 5 5 6 9 8 11 11 9 11 10 11
10 8 7 6 6 7 7 6 6 5 4 3 3 3 3 3 4 5 6 7 10 11 11 7 6 4 8 7 5 6 3 3 4 6 9 11 12 12 10 11 11 11 10
10 8 7 6 6 7 6 6 4 3 2 3 2 1 1 3 4 5 7 10 10 11 10 8 7 6 5 5 4 1 1 4 6 8 10 11 12 13 14 12 13 11 11
10 8 8 6 6 7 7 5 4 1 2 4 4 3 2 3 5 7 8 10 10 10 10 6 4 5 2 1 1 2 5 7 9 9 10 10 12 18 16 11 13 13 12
10 9 8 8 8 8 6 4 1 2 3 4 4 2 3 4 6 8 9 9 8 9 9 4 2 3 3 6 8 6 6 7 8 10 11 11 13 11 15 15 17 15 13
10 10 8 9 8 6 4 2 2 3 3 4 2 2 3 6 7 8 9 8 8 7 3 4 2 3 3 6 6 6 5 7 9 10 11 10 8 12 10 13 16 16 17
10 8 9 7 6 4 2 1 2 3 2 2 3 3 4 6 7 8 9 7 6 6 3 1 2 2 3 4 5 6 6 7 9 10 10 11 11 10 12 14 13 13 12
8 9 8 7 6 3 0 1 2 3 2 3 4 5 5 5 6 8 8 7 7 4 4 3 2 2 1 3 5 7 6 8 10 9 10 10 10 13 19 14 12 12 12
9 9 7 4 4 2 1 3 3 2 3 4 5 6 5 5 6 8 8 5 4 6 3 4 2 1 2 2 5 7 5 8 8 9 10 9 11 17 17 12 11 11 12
11 10 7 6 3 3 3 4 3 4 3 5 6 6 5 5 5 6 8 6 5 4 3 3 3 4 3 3 4 7 7 7 8 9 8 8 15 17 16 15 9 11 12
10 6 5 4 3 3 2 4 5 4 5 7 7 5 5 5 4 6 6 4 2 3 4 3 4 4 4 5 4 7 9 9 8 8 8 9 15 15 14 11 15 14 10
10 5 4 3 2 2 2 4 4 6 7 8 7 6 7 6 4 5 6 5 4 4 4 4 5 4 4 4 6 7 8 8 6 6 9 11 13 12 8 12 12 9 7
4 4 4 3 2 2 2 4 5 6 7 7 6 7 6 7 6 5 4 5 5 4 4 5 6 5 4 4 4 4 4 5 6 6 5 5 7 6 6 7 7 6 6
4 4 4 3 4 3 4 5 6 5 6 6 7 8 5 6 5 6 5 4 4 5 5 6 5 6 6 5 5 6 4 5 4 5 4 4 5 6 6 6 6 6 7
4 3 4 4 3 4 5 6 6 6 7 8 7 7 6 6 5 6 7 9 9 9 11 12 8 6 10 8 8 10 6 6 3 4 4 4 4 5 6 6 6 6 7
Wind_Direction
91 92 100 112 121 135 141 131 130 145 137 143 155 156 154 137 98 82 77 86 84 72 62 59 47 36 32 19 8 339 335 336 348 306 315 287 219 263 354 349 348 5 353
113 106 106 123 139 142 142 146 146 150 160 161 163 127 141 130 98 84 84 77 74 66 77 77 66 44 10 4 359 357 335 327 1 334 309 315 275 309 331 336 335 350 329
128 122 121 119 122 130 144 150 153 157 162 153 94 99 119 123 144 134 110 87 75 66 63 79 60 19 353 352 346 345 342 330 335 6 325 308 306 329 321 320 303 329 323
130 138 139 139 141 138 131 128 132 135 129 144 164 188 197 179 100 119 127 99 27 13 343 283 292 305 305 310 321 326 318 302 313 319 302 288 296 291 299 275 299 299 313
153 156 156 146 142 141 139 134 134 137 133 150 126 132 90 88 106 131 174 241 278 291 282 272 287 287 285 284 272 262 255 243 290 295 301 295 296 280 292 298 318 308 300
164 165 173 162 141 95 114 123 129 116 107 93 83 98 117 127 149 200 255 280 289 284 270 271 272 276 272 258 257 251 236 249 264 271 286 289 300 308 294 306 308 318 306
180 174 180 183 178 150 128 148 138 119 102 97 97 116 129 151 224 253 281 299 305 292 297 282 273 273 280 281 284 283 294 297 292 298 303 291 285 292 282 287 305 295 306
191 184 189 186 166 146 127 155 137 128 118 105 120 114 135 229 276 310 310 293 296 297 306 311 299 290 273 265 258 271 288 310 295 285 286 289 287 289 300 306 309 302 294
184 184 182 170 140 127 127 170 148 119 123 145 134 131 14 341 320 315 308 313 317 318 314 307 300 289 269 262 268 290 294 293 286 288 293 295 301 299 289 288 292 295 297
171 157 142 127 114 110 123 115 116 144 125 74 40 17 344 311 303 315 331 335 328 326 316 310 300 290 279 268 287 281 286 294 284 285 290 295 303 299 295 289 291 283 284
148 130 123 117 116 111 112 125 122 84 70 52 35 341 332 21 17 5 1 353 329 327 319 314 306 299 296 313 296 298 318 291 296 302 300 296 303 296 294 294 288 282 283
139 138 135 136 126 107 109 94 93 101 83 71 84 76 43 39 28 7 348 343 326 320 322 316 303 299 319 286 315 288 289 299 297 317 306 299 302 298 297 291 288 287 288
147 146 146 139 128 115 96 84 78 96 103 95 53 51 55 23 3 346 334 329 329 327 322 294 271 299 305 300 274 293 290 305 311 312 303 302 304 302 301 295 293 289 288
157 154 149 130 116 110 113 112 145 119 85 25 358 308 340 349 339 330 332 335 331 325 322 299 285 307 290 287 299 254 307 313 309 310 309 306 305 305 304 299 297 295 289
171 165 152 144 140 140 143 151 149 169 7 322 279 275 290 327 333 336 332 333 330 329 323 311 304 302 295 31 38 14 340 328 322 314 308 307 312 303 301 301 302 304 293
174 162 158 148 146 152 144 158 149 354 331 304 273 269 310 317 336 337 329 324 328 344 348 342 73 54 50 63 61 14 344 333 323 320 317 316 311 311 313 304 298 296 292
173 168 164 156 149 155 153 119 348 325 306 290 243 281 309 332 333 322 320 326 333 321 4 333 6 83 66 62 50 28 345 330 328 325 321 320 317 312 314 305 291 282 282
167 164 156 153 159 146 123 349 284 314 320 270 281 313 327 315 317 321 325 324 337 321 316 239 158 130 75 40 26 9 338 331 332 327 318 318 315 319 312 314 314 305 308
170 162 159 157 144 143 180 274 346 348 304 292 309 317 309 306 325 330 329 321 313 292 284 222 198 216 35 29 5 339 334 333 329 321 321 320 320 318 322 320 323 321 314
145 141 129 112 119 107 57 324 295 288 302 315 309 308 294 299 329 331 322 309 302 311 202 203 213 161 272 335 336 336 326 322 322 324 324 322 327 323 326 327 329 316 325
135 134 131 131 105 42 355 289 276 289 310 302 299 298 290 299 319 322 312 300 301 264 226 230 239 246 252 270 311 328 323 318 319 323 324 329 328 329 334 336 327 338 333
107 111 115 102 81 35 337 292 285 316 307 301 292 290 288 291 296 305 304 289 249 234 247 261 267 252 251 252 279 306 319 320 316 318 323 320 333 334 334 331 335 342 333
133 131 123 129 99 3 292 284 301 308 305 300 294 300 309 298 287 292 290 264 241 245 265 269 277 275 258 264 262 287 299 304 302 317 320 324 330 335 327 344 344 340 347
123 126 156 169 265 259 256 292 301 300 310 307 299 302 311 300 281 278 274 268 263 248 259 273 275 279 277 269 263 277 294 290 293 319 314 321 326 323 321 336 352 353 350
179 178 186 214 259 249 291 302 297 297 300 293 287 285 286 277 264 260 263 258 253 249 273 276 275 277 279 271 244 276 286 309 330 314 318 334 345 345 348 351 354 356 353
170 188 213 244 274 292 291 292 297 284 284 289 281 277 282 280 260 258 258 229 245 238 235 247 255 264 252 251 251 275 279 289 330 301 323 332 337 339 339 342 345 351 355